RH
34 30 25 18 10 6 3 4 7 7 6 12 15 20 25 30 42 55 55 57 56 54 48 64 85 92 81 74 69 86 95 100 98 100 100 100 100 100 100 100 100 100 100 71
35 31 23 12 6 4 3 5 7 7 7 8 18 27 33 39 47 50 59 63 64 62 70 66 100 99 100 99 99 100 86 88 86 92 100 100 100 100 100 100 100 100 100 86
38 30 17 7 5 3 5 7 8 8 10 16 22 27 35 40 44 58 69 80 68 67 86 99 98 100 94 97 87 85 78 99 100 100 100 100 88 92 100 88 91 71 85 100
38 28 9 6 4 3 7 8 8 8 9 15 21 32 48 57 43 40 50 78 78 98 91 96 100 100 76 80 87 98 79 62 63 95 100 100 100 100 100 100 100 96 83 98
37 22 6 5 3 4 8 9 9 10 13 16 20 29 43 62 59 44 50 80 84 100 100 100 98 100 88 91 52 100 77 61 47 37 39 85 97 100 100 100 91 85 98 100
36 13 6 5 4 6 9 9 9 10 14 17 21 30 44 60 66 62 48 62 65 82 80 85 83 84 82 80 74 70 76 67 51 46 34 31 46 92 100 100 100 100 100 100
30 7 6 5 4 7 10 9 9 10 14 19 22 38 49 58 64 66 55 59 76 73 77 75 80 81 80 80 79 84 80 78 86 97 73 47 41 58 94 100 100 100 100 100
20 5 6 4 5 9 10 10 9 9 15 19 27 41 58 76 79 78 65 69 66 62 66 77 78 87 93 93 95 98 99 100 99 99 100 100 100 92 92 96 100 100 100 100
14 5 7 5 6 10 11 10 10 10 14 21 28 44 52 62 74 81 69 71 72 75 71 60 59 77 90 97 100 100 100 95 100 100 100 100 100 100 100 100 100 100 100 100
12 6 7 6 6 10 11 10 10 10 14 21 31 46 52 63 77 72 62 62 64 62 64 73 64 62 85 92 99 100 98 92 97 100 100 100 100 100 100 100 100 100 100 100
9 5 7 7 7 11 11 10 10 10 13 21 34 47 58 72 77 76 78 77 69 71 68 61 56 59 74 91 100 100 100 100 99 98 95 99 100 100 100 100 100 100 100 100
8 6 7 8 8 13 11 11 11 10 12 17 30 46 57 65 71 79 81 74 75 78 82 82 87 90 95 100 100 100 100 100 100 95 96 99 100 100 100 100 100 100 100 100
8 7 7 9 10 16 12 11 12 10 11 13 20 41 54 64 71 76 81 85 79 82 86 96 98 100 100 100 100 100 100 100 100 100 100 100 99 91 89 97 100 100 100 99
9 9 8 10 12 18 15 11 12 11 10 14 21 37 48 65 74 78 78 80 83 81 88 97 100 100 100 100 100 100 100 100 100 100 98 96 90 82 80 86 90 86 89 91
8 10 8 11 13 19 19 13 14 13 12 16 26 39 51 67 76 77 76 73 76 76 79 89 98 100 100 100 100 100 100 100 100 95 84 80 82 89 86 86 90 87 82 78
8 8 10 12 15 20 23 14 14 14 13 13 25 36 46 59 66 72 76 72 68 74 76 82 88 98 96 100 100 99 100 100 100 89 77 80 81 92 100 100 100 100 97 92
17 11 11 15 18 23 26 17 16 15 15 14 22 32 45 56 65 70 79 77 74 76 77 82 87 91 98 100 100 94 84 84 89 91 89 82 68 62 62 62 60 59 60 62
21 15 12 19 21 28 30 18 16 17 16 16 16 27 39 47 56 69 71 77 78 81 82 83 84 86 94 97 94 89 84 80 75 73 74 76 79 79 77 72 67 62 58 57
29 15 19 25 27 33 32 22 16 20 20 19 16 17 27 36 48 58 58 48 43 52 73 82 86 82 82 86 91 87 86 84 81 80 80 80 76 72 67 65 64 66 67 67
26 21 30 30 28 34 36 24 13 17 22 22 19 17 21 32 40 51 51 46 42 37 35 42 64 77 80 80 78 79 80 82 81 77 76 79 78 75 75 76 76 75 73 72
25 31 33 33 30 36 35 30 13 13 18 22 24 20 16 20 27 34 42 43 39 34 31 34 34 37 45 59 73 75 73 72 75 76 77 77 78 77 77 77 78 79 80 81
35 36 35 35 30 33 36 30 14 11 14 24 28 24 19 16 18 25 29 31 33 28 26 33 62 65 66 62 61 61 66 70 72 73 72 71 70 71 72 73 74 74 72 74
28 28 37 32 29 43 45 33 13 10 11 20 34 34 30 23 20 19 22 24 24 23 25 51 66 85 92 90 86 85 85 85 86 84 80 79 78 77 75 73 78 82 79 82
31 41 40 30 36 45 48 26 14 11 11 13 22 39 40 34 29 23 20 21 23 24 34 71 79 87 91 95 97 96 94 96 94 94 92 90 89 84 79 82 86 92 95 98
44 53 43 42 42 49 44 28 15 11 11 12 14 27 48 51 42 39 29 26 28 33 61 77 81 82 81 93 100 100 100 99 97 98 99 98 98 95 86 80 70 52 40 37
49 47 39 42 47 44 34 25 18 11 9 10 13 16 22 48 58 52 59 52 54 62 72 77 77 81 84 86 91 100 100 99 90 78 64 54 54 52 39 33 29 24 22 22
56 46 45 52 48 46 40 35 19 11 9 10 13 18 22 28 57 68 58 64 69 78 80 81 89 93 88 88 89 86 85 89 92 88 80 55 46 34 33 35 31 29 31 35
Wind_Speed
72 76 79 82 82 84 87 87 82 79 71 62 58 52 47 41 34 29 24 23 22 20 24 16 14 13 10 10 17 24 35 38 33 34 33 30 33 37 35 33 28 30 30 37
73 76 79 81 82 86 88 84 79 76 71 64 55 49 45 41 34 28 24 24 28 25 19 12 12 11 7 5 6 9 17 25 33 37 39 33 35 35 36 34 37 36 32 34
75 77 78 80 83 86 84 81 78 74 70 61 53 48 44 40 34 30 27 26 24 16 13 9 8 10 12 9 6 1 3 8 17 25 27 26 33 35 33 34 32 37 45 43
74 76 76 79 83 84 81 79 76 73 67 57 52 49 44 39 34 33 26 17 17 13 11 7 7 6 12 11 12 10 5 6 9 13 20 27 26 19 22 26 30 27 28 33
74 74 75 79 82 82 78 77 74 69 62 55 52 48 42 35 34 34 25 17 15 11 13 12 9 9 10 11 12 15 17 19 18 18 20 20 24 27 24 26 25 25 25 30
72 72 75 79 81 79 77 75 71 66 59 54 52 49 42 34 31 31 29 21 15 13 15 17 17 17 16 16 17 19 23 25 26 26 21 22 23 28 30 30 33 31 26 24
70 71 75 78 80 77 75 74 71 65 56 54 51 44 39 34 31 28 26 26 23 20 19 16 14 10 9 9 10 10 7 7 6 7 12 15 19 24 30 36 36 34 27 21
68 70 74 77 77 74 73 72 69 63 54 52 47 38 34 34 34 29 24 24 23 23 21 14 12 12 12 13 13 10 7 5 2 6 6 9 4 10 15 24 29 30 29 25
66 70 73 76 75 72 71 70 67 61 54 52 43 33 32 31 30 30 29 27 25 23 21 16 13 12 14 16 19 14 7 9 10 7 15 9 10 6 6 12 15 22 24 25
64 68 72 74 74 70 69 67 65 60 55 50 41 30 29 31 32 30 27 27 26 24 22 19 14 10 12 13 17 19 11 9 8 8 9 11 10 7 2 8 12 15 18 22
63 67 71 74 74 69 67 65 63 59 55 50 39 29 27 29 30 29 26 23 23 23 22 20 17 12 11 12 13 12 13 13 7 7 8 7 11 7 5 6 9 12 14 16
63 66 70 73 72 67 64 63 60 57 54 51 37 25 25 29 32 32 26 21 20 19 18 18 16 15 13 12 12 10 9 8 5 3 4 4 7 8 5 6 7 9 13 17
61 64 68 72 69 65 62 61 58 55 52 49 34 22 24 30 33 32 28 22 17 17 17 17 17 16 15 14 13 12 10 7 5 3 1 5 7 9 8 8 9 11 13 13
60 64 67 71 67 63 61 58 55 53 50 45 32 23 24 31 34 33 30 23 16 14 16 16 17 17 16 16 15 13 11 9 8 7 6 6 7 7 8 9 10 11 12 13
59 62 66 69 65 61 59 55 51 48 48 43 32 27 28 32 33 33 31 25 18 14 15 16 16 16 16 15 14 14 13 11 7 3 1 4 4 4 4 5 6 8 10 12
58 63 67 69 64 59 56 52 47 46 43 41 30 26 28 31 31 33 33 27 22 18 17 16 16 16 16 15 17 18 19 17 17 15 12 10 7 4 4 3 3 3 6 10
58 61 66 67 62 57 55 51 46 44 41 37 29 23 25 28 30 30 31 31 28 24 20 19 18 16 16 15 15 16 17 19 20 20 19 18 17 16 15 16 16 16 16 15
58 60 65 66 61 55 54 50 44 41 38 35 31 21 20 22 24 25 27 29 29 26 23 21 18 16 16 13 13 14 15 15 15 15 15 14 14 14 14 14 14 14 13 13
56 60 64 65 58 52 50 49 42 38 35 33 31 23 16 16 18 19 21 24 25 25 25 23 21 18 15 12 10 10 10 10 10 10 10 10 10 10 9 9 8 8 7 7
55 60 65 65 60 52 48 46 42 36 34 31 28 25 17 15 14 14 16 18 21 24 24 21 20 19 18 14 11 8 9 8 7 6 5 4 3 3 2 1 1 2 2 3
56 60 64 65 58 50 47 45 42 38 33 32 28 24 22 15 13 12 13 16 18 20 23 22 18 16 15 14 13 11 8 7 6 5 5 5 6 6 7 8 8 9 10 11
56 60 63 65 58 50 46 45 42 39 33 31 29 26 21 19 15 14 14 15 18 20 21 22 20 18 16 14 13 12 12 11 11 10 10 11 12 13 14 15 15 16 17 17
58 61 64 65 58 49 45 45 42 39 35 30 28 27 24 20 18 18 17 18 19 20 21 22 23 18 16 15 14 14 14 14 13 14 14 14 15 16 17 17 16 17 17 16
58 61 63 62 55 48 44 44 43 40 36 32 29 27 27 25 22 22 21 20 20 20 20 21 20 17 17 16 16 15 14 15 14 14 14 13 13 14 13 14 15 16 17 17
58 61 62 57 51 47 46 44 43 41 38 36 33 28 27 27 26 23 23 23 22 21 20 20 20 20 19 19 17 16 16 15 14 14 14 14 14 14 14 11 12 14 14 15
58 58 59 54 49 48 46 44 43 41 40 39 37 33 30 26 27 24 23 23 22 22 22 22 22 22 22 22 21 20 19 19 18 18 17 15 14 14 13 12 15 16 16 16
58 58 55 51 48 47 45 45 43 41 40 40 39 37 33 31 28 27 26 24 23 24 24 24 24 23 24 25 25 24 24 23 23 23 22 20 18 15 15 15 16 17 20 23
Wind_Direction
346 346 346 344 344 344 344 345 347 349 348 349 350 354 356 353 350 347 345 340 328 321 330 331 326 323 307 272 258 256 242 248 248 243 221 215 206 206 202 205 210 210 227 239
347 347 346 345 345 346 346 347 348 348 350 350 354 355 354 348 343 339 335 333 337 336 330 325 336 309 319 308 299 271 246 245 244 238 236 247 234 233 217 220 225 220 219 230
348 348 347 346 347 347 348 348 349 350 351 353 353 353 352 352 347 335 331 332 343 351 344 332 290 313 290 284 303 266 1 250 235 230 231 232 236 243 237 247 240 237 232 236
348 347 347 347 348 348 349 350 351 351 352 354 353 353 350 349 352 353 353 348 346 357 5 339 309 304 291 270 287 250 265 295 286 254 236 229 212 206 217 219 221 232 231 229
348 346 347 349 349 349 350 350 352 352 353 354 354 352 350 351 354 1 1 3 353 334 332 337 332 322 310 289 286 266 266 282 286 288 274 249 239 220 218 210 225 233 228 218
346 346 348 349 350 350 351 351 353 353 355 354 354 352 353 358 359 1 5 3 354 336 323 315 310 304 301 296 296 288 281 282 283 282 265 245 240 232 217 217 212 215 206 199
346 347 348 350 350 350 351 352 353 354 356 356 356 357 358 3 4 2 7 10 359 352 344 345 344 341 336 336 322 307 309 327 289 250 240 234 227 224 225 220 223 219 221 217
346 348 349 350 350 351 351 352 354 355 357 358 360 5 13 12 9 10 9 8 9 14 16 16 37 52 38 22 8 357 338 5 33 25 117 141 127 211 217 222 225 232 234 234
347 348 349 350 351 351 351 352 354 356 357 359 1 8 15 15 16 15 13 14 15 15 22 30 53 47 40 37 29 30 49 86 52 82 122 127 156 147 177 198 208 225 229 230
346 347 348 350 351 351 351 351 354 356 357 359 2 2 10 14 16 16 18 22 24 26 26 27 30 30 29 31 29 36 63 55 66 106 119 120 112 126 156 175 192 213 222 229
345 346 347 350 352 351 350 351 354 357 357 358 360 359 5 8 7 9 13 13 16 21 28 31 34 33 23 24 24 26 33 48 76 111 136 133 135 131 146 143 164 175 185 203
346 347 347 350 351 350 350 351 354 357 359 358 358 1 3 4 3 1 359 3 8 12 16 23 25 24 21 17 10 13 10 8 26 110 146 163 171 183 168 162 174 177 186 194
345 345 347 349 350 349 350 351 354 358 0 2 2 9 6 3 1 358 355 353 350 356 0 7 8 8 7 4 1 354 351 350 343 319 191 193 203 210 202 191 197 204 205 199
343 344 347 347 349 349 349 350 353 357 1 8 14 19 10 7 3 0 359 359 354 349 354 360 359 357 359 354 350 347 342 328 308 280 259 226 221 218 217 220 223 218 215 209
342 343 345 347 349 348 348 349 352 357 1 7 14 17 14 13 11 10 10 12 10 2 358 1 6 8 9 17 27 28 21 17 10 353 267 208 217 218 207 196 206 215 218 218
341 342 343 345 348 347 348 348 349 356 0 5 7 10 14 16 18 19 20 20 20 17 17 21 25 28 42 42 45 48 50 54 61 69 75 83 91 92 98 116 140 178 210 222
341 342 342 345 347 347 346 346 351 355 359 3 4 6 13 17 22 25 27 28 30 30 32 35 34 38 41 44 49 55 59 64 69 75 80 85 90 95 96 96 95 94 95 97
340 340 342 345 346 346 344 346 348 353 355 -0 5 2 7 13 20 27 31 30 30 29 30 30 32 33 35 40 52 63 63 65 71 77 81 85 88 90 90 89 87 85 85 87
338 338 341 345 346 344 343 344 345 350 352 354 358 1 359 5 15 22 25 24 25 25 26 26 26 27 31 36 44 51 55 57 62 71 77 80 83 86 90 90 86 80 76 78
337 337 340 344 345 344 342 343 345 347 350 350 350 354 347 349 356 6 11 13 10 13 15 16 16 17 20 21 24 28 23 26 30 31 34 44 69 101 118 118 37 341 324 307
335 337 339 342 343 342 341 342 343 345 346 348 347 343 346 335 335 337 347 351 353 354 356 359 360 1 1 1 3 2 349 340 335 324 309 294 286 283 284 284 285 285 286 286
336 336 339 341 340 342 343 341 341 341 344 341 344 343 334 334 324 318 321 329 333 337 340 342 342 339 336 333 331 328 324 322 319 312 301 293 288 285 284 283 285 286 286 287
333 335 338 341 341 342 341 338 339 339 339 337 335 337 336 321 316 313 310 313 319 324 328 332 335 339 340 338 332 324 318 312 307 300 296 294 290 288 287 286 285 283 285 286
334 335 338 339 340 339 338 336 336 336 334 334 332 328 331 329 318 304 303 309 311 314 320 326 328 329 330 333 331 323 317 312 309 304 300 297 294 290 288 290 291 288 290 289
334 335 337 336 337 337 334 334 334 334 332 330 329 328 322 322 321 316 303 302 303 306 311 318 317 315 318 323 327 327 325 323 320 315 306 300 295 293 294 296 293 293 297 297
333 334 333 332 333 332 332 332 332 331 329 326 325 325 320 314 313 314 308 304 301 299 301 307 310 311 308 307 310 315 317 319 316 312 309 301 293 288 289 297 299 302 301 304
331 331 329 329 330 329 328 328 329 328 326 323 320 319 315 311 306 304 303 300 301 298 298 301 304 305 304 303 302 301 302 306 310 311 309 306 300 285 286 294 297 296 298 303